WA1NHP Weather Reports


time (UTC)temp
F
wind
direction
speed
knots
gust
knots
rain 1hr
in
rain 24hr
in
rain mn
in
humidity
%
barometer
mb
20260506213404 57 179 4.3 13.9 0.00 0.19 0.19 96 1023.9
20260506212404 57 205 5.2 17.4 0.00 0.19 0.19 96 1023.9
20260506211404 57 205 5.2 11.3 0.00 0.19 0.19 96 1023.9
20260506210404 58 203 5.2 18.2 0.00 0.19 0.19 96 1023.9
20260506205403 58 208 8.7 14.8 0.00 0.19 0.19 96 1023.9
20260506204403 58 193 7.0 17.4 0.01 0.19 0.19 96 1023.9
20260506203404 58 204 6.1 14.8 0.02 0.19 0.19 96 1023.9
20260506202404 58 163 11.3 13.0 0.03 0.19 0.19 96 1023.9
20260506201404 58 199 6.1 14.8 0.05 0.19 0.19 96 1023.9
20260506200403 58 190 6.1 14.8 0.06 0.19 0.19 96 1023.9
20260506195403 58 208 5.2 11.3 0.07 0.19 0.19 96 1023.9
20260506194404 58 199 5.2 14.8 0.06 0.18 0.18 96 1023.9
20260506193404 58 202 5.2 13.9 0.06 0.17 0.17 96 1023.9
20260506192404 58 160 8.7 11.3 0.05 0.16 0.16 96 1023.9
20260506191403 58 192 5.2 12.2 0.04 0.14 0.14 96 1023.9
20260506190403 58 187 3.5 12.2 0.04 0.13 0.13 95 1023.9
20260506185403 58 165 4.3 13.9 0.04 0.12 0.12 95 1023.9
20260506184403 59 211 6.1 13.0 0.05 0.12 0.12 95 1023.9
20260506183404 59 183 7.8 10.4 0.06 0.11 0.11 95 1023.9
20260506182403 59 183 4.3 7.8 0.07 0.11 0.11 95 1023.9
20260506181404 59 178 4.3 8.7 0.08 0.10 0.10 95 1023.9
20260506180404 59 194 2.6 8.7 0.08 0.09 0.09 94 1023.9
20260506175403 59 182 4.3 10.4 0.08 0.08 0.08 94 1023.9
20260506174404 59 182 2.6 8.7 0.07 0.07 0.07 94 1023.9
20260506173403 59 193 2.6 8.7 0.05 0.05 0.05 93 1023.9
20260506172404 60 207 2.6 7.8 0.04 0.04 0.04 92 1023.9
20260506171404 60 188 2.6 7.8 0.02 0.02 0.02 90 1023.9
20260506170403 60 189 3.5 11.3 0.01 0.01 0.01 89 1023.9
20260506165403 61 193 2.6 8.7 0.00 0.00 0.00 86 1023.9
20260506164403 61 215 3.5 13.0 0.00 0.00 0.00 84 1023.9
20260506163403 62 204 4.3 11.3 0.00 0.00 0.00 83 1023.9
20260506162403 63 190 6.1 15.6 0.00 0.00 0.00 80 1023.9
20260506161404 63 194 6.1 13.0 0.00 0.00 0.00 79 1023.9
20260506160404 63 198 5.2 12.2 0.00 0.00 0.00 79 1023.9
20260506155404 63 192 5.2 13.9 0.00 0.00 0.00 80 1023.9
20260506154404 63 202 5.2 11.3 0.00 0.00 0.00 80 1023.9
20260506153403 63 223 4.3 10.4 0.00 0.00 0.00 80 1023.9
20260506152403 63 213 5.2 10.4 0.00 0.00 0.00 80 1023.9
20260506151404 63 238 3.5 8.7 0.00 0.00 0.00 80 1023.9
20260506150404 63 201 6.1 12.2 0.00 0.00 0.00 80 1023.9
20260506145404 63 187 4.3 14.8 0.00 0.00 0.00 80 1023.9
20260506144403 63 168 5.2 11.3 0.00 0.00 0.00 80 1023.9
20260506143403 63 136 2.6 17.4 0.00 0.00 0.00 79 1023.9
20260506142404 64 170 7.8 14.8 0.00 0.00 0.00 78 1023.9
20260506141404 64 216 5.2 17.4 0.00 0.00 0.00 77 1023.9
20260506140404 65 198 7.8 18.2 0.00 0.00 0.00 76 1023.9
20260506135404 64 210 4.3 11.3 0.00 0.00 0.00 79 1023.9
20260506134403 63 196 6.1 13.0 0.00 0.00 0.00 79 1023.9
20260506133403 63 205 2.6 10.4 0.00 0.00 0.00 80 1023.9
20260506132403 63 168 1.7 10.4 0.00 0.00 0.00 81 1023.9
20260506131404 62 205 5.2 10.4 0.00 0.00 0.00 83 1023.9
20260506130403 61 211 2.6 14.8 0.00 0.00 0.00 84 1023.9
20260506125404 60 213 3.5 13.0 0.00 0.00 0.00 85 1023.9
20260506124404 60 194 6.1 10.4 0.00 0.00 0.00 85 1023.9
20260506123403 60 236 4.3 13.0 0.00 0.00 0.00 85 1023.9
20260506122404 60 198 2.6 12.2 0.00 0.00 0.00 86 1023.9
20260506121403 59 186 4.3 10.4 0.00 0.00 0.00 86 1023.9
20260506120404 59 170 2.6 8.7 0.00 0.00 0.00 87 1023.9
20260506115404 58 228 2.6 8.7 0.00 0.00 0.00 88 1023.9
20260506114404 58 192 6.1 11.3 0.00 0.00 0.00 88 1023.9
20260506113404 58 157 1.7 13.0 0.00 0.00 0.00 88 1023.9
20260506112404 57 175 6.1 13.9 0.00 0.00 0.00 89 1023.9
20260506111404 57 182 5.2 13.9 0.00 0.00 0.00 89 1023.9
20260506110403 56 193 4.3 10.4 0.00 0.00 0.00 89 1023.9
20260506105403 56 179 1.7 14.8 0.00 0.00 0.00 89 1023.9
20260506104403 56 196 2.6 14.8 0.00 0.00 0.00 89 1023.9
20260506103404 56 186 5.2 11.3 0.00 0.00 0.00 89 1023.9
20260506102404 55 169 4.3 10.4 0.00 0.00 0.00 90 1023.9
20260506101404 55 160 2.6 13.9 0.00 0.00 0.00 89 1023.9
20260506100404 55 144 2.6 10.4 0.00 0.00 0.00 89 1023.9
20260506095404 55 203 3.5 10.4 0.00 0.00 0.00 89 1023.9
20260506094404 55 191 5.2 10.4 0.00 0.00 0.00 89 1023.9
20260506093404 55 189 5.2 10.4 0.00 0.00 0.00 89 1023.9
20260506092403 55 189 2.6 10.4 0.00 0.00 0.00 89 1023.9
20260506091404 55 159 4.3 11.3 0.00 0.00 0.00 88 1023.9
20260506090405 56 178 2.6 10.4 0.00 0.00 0.00 88 1023.9
20260506085404 55 171 5.2 10.4 0.00 0.00 0.00 88 1023.9
20260506084404 55 170 5.2 11.3 0.00 0.00 0.00 88 1023.9
20260506083403 55 187 3.5 11.3 0.00 0.00 0.00 87 1023.9
20260506082403 55 192 4.3 7.0 0.00 0.00 0.00 87 1023.9
20260506081403 55 168 1.7 8.7 0.00 0.00 0.00 87 1023.9
20260506080404 55 161 0.9 6.1 0.00 0.00 0.00 86 1023.9
20260506073404 56 198 1.7 4.3 0.00 0.00 0.00 83 1023.9
20260506072404 56 169 2.6 7.8 0.00 0.00 0.00 83 1023.9
20260506071403 57 225 2.6 6.1 0.00 0.00 0.00 82 1023.9
20260506070404 57 191 1.7 10.4 0.00 0.00 0.00 81 1023.9
20260506062404 58 219 2.6 7.0 0.00 0.00 0.00 79 1023.9
20260506061405 58 161 1.7 4.3 0.00 0.00 0.00 78 1023.9
20260506060404 58 196 3.5 8.7 0.00 0.00 0.00 78 1023.9
20260506051404 59 200 5.2 11.3 0.00 0.00 0.00 76 1023.9
20260506050404 60 190 4.3 8.7 0.00 0.00 0.00 75 1023.9
20260506044404 60 196 4.3 11.3 0.00 0.00 0.00 75 1023.9
20260506043404 60 226 2.6 10.4 0.00 0.00 0.00 75 1023.9
20260506042404 60 197 6.1 14.8 0.00 0.00 0.00 74 1023.9
20260506041404 60 194 5.2 13.9 0.00 0.00 0.00 74 1023.9
20260506040404 60 197 5.2 13.9 0.00 0.00 0.00 74 1023.9
20260506035404 60 206 3.5 7.8 0.00 0.00 0.00 74 1023.9
20260506034404 60 203 2.6 7.0 0.00 0.00 0.00 75 1023.9
20260506033404 60 206 4.3 11.3 0.00 0.00 0.00 74 1023.9
20260506032404 60 188 4.3 10.4 0.00 0.00 0.00 74 1023.9
20260506031403 61 176 3.5 10.4 0.00 0.00 0.00 74 1023.9
20260506030403 61 198 1.7 8.7 0.00 0.00 0.00 74 1023.9
20260506025404 61 179 0.9 8.7 0.00 0.00 0.00 75 1023.9
20260506024404 61 161 2.6 7.0 0.00 0.00 0.00 75 1023.9